ED234 LCEN-LCEN

Flight info

Callsign ED234
Flight time N/A
Altitude 3500
Route 351633N0331605E 352148N0325704E 350955N0325455E 350413N0321752E DCT PHA DCT AKR DCT LCA DCT 350043N0334242E 345809N0340403E 351335N0335411E 354006N0343444E 352003N0332205E DCT GKE
Aircraft C172/L-SDFGR/C

Departure

Time 2026-04-29 19:05
Airport Ercan International Airport (LCEN)

Arrival

Time N/A
Airport Ercan International Airport (LCEN)
Time Latitude Longitude Altitude Speed Heading
2026-04-29 19:03 35.23572 33.73461 141 ft 0 kts 269°
2026-04-29 19:03 35.23558 33.73313 141 ft 42 kts 260°
2026-04-29 19:03 35.23574 33.72816 185 ft 69 kts 264°
2026-04-29 19:03 35.23527 33.72255 413 ft 64 kts 240°
2026-04-29 19:04 35.23543 33.71722 466 ft 82 kts 323°
2026-04-29 19:04 35.24126 33.71900 536 ft 99 kts 34°
2026-04-29 19:04 35.24519 33.72380 923 ft 72 kts 39°
2026-04-29 19:04 35.24918 33.72925 955 ft 93 kts 49°
2026-04-29 19:05 35.25221 33.73636 1069 ft 100 kts 64°
2026-04-29 19:05 35.25541 33.74327 1272 ft 97 kts 63°
2026-04-29 19:05 35.25791 33.75127 1379 ft 102 kts 67°
2026-04-29 19:05 35.26105 33.75938 1475 ft 107 kts 61°
2026-04-29 19:06 35.26447 33.76794 1470 ft 119 kts 66°
2026-04-29 19:06 35.26776 33.77728 1460 ft 122 kts 63°
2026-04-29 19:06 35.27505 33.79554 1574 ft 122 kts 61°
2026-04-29 19:07 35.27893 33.80529 1463 ft 131 kts 62°
2026-04-29 19:07 35.28154 33.81208 1444 ft 129 kts 63°
2026-04-29 19:07 35.28708 33.82556 1272 ft 135 kts 61°
2026-04-29 19:07 35.29129 33.83593 1158 ft 137 kts 63°
2026-04-29 19:08 35.29559 33.84621 1048 ft 137 kts 62°
2026-04-29 19:08 35.29955 33.85636 600 ft 158 kts 65°
2026-04-29 19:08 35.30368 33.86889 244 ft 149 kts 64°
2026-04-29 19:08 35.30846 33.87883 336 ft 123 kts 75°
2026-04-29 19:09 35.31258 33.88840 214 ft 128 kts 63°
2026-04-29 19:09 35.31633 33.89796 282 ft 121 kts 64°
2026-04-29 19:09 35.32023 33.90759 158 ft 129 kts 63°
2026-04-29 19:09 35.32394 33.91748 151 ft 127 kts 66°
2026-04-29 19:10 35.32753 33.92710 153 ft 122 kts 54°
2026-04-29 19:10 35.33187 33.93576 207 ft 115 kts 70°
2026-04-29 19:10 35.33552 33.94354 334 ft 110 kts 63°
2026-04-29 19:10 35.33940 33.95219 296 ft 120 kts 60°
2026-04-29 19:11 35.34333 33.96148 283 ft 121 kts 63°
2026-04-29 19:11 35.34755 33.97042 306 ft 120 kts 59°
2026-04-29 19:11 35.35041 33.98000 254 ft 127 kts 80°
2026-04-29 19:11 35.35171 33.99052 204 ft 128 kts 81°
2026-04-29 19:12 35.35355 34.00149 98 ft 131 kts 78°
2026-04-29 19:12 35.35763 34.01114 92 ft 125 kts 56°
2026-04-29 19:12 35.36266 34.01976 111 ft 123 kts 52°
2026-04-29 19:12 35.36617 34.02527 132 ft 121 kts 50°
2026-04-29 19:13 35.37170 34.03708 169 ft 117 kts 54°
2026-04-29 19:13 35.37640 34.04540 143 ft 122 kts 55°
2026-04-29 19:13 35.38121 34.05366 215 ft 115 kts 51°
2026-04-29 19:13 35.38580 34.06203 201 ft 120 kts 54°
2026-04-29 19:14 35.39089 34.07051 101 ft 128 kts 53°
2026-04-29 19:14 35.39578 34.07937 149 ft 120 kts 57°
2026-04-29 19:14 35.40009 34.08796 192 ft 119 kts 56°
2026-04-29 19:14 35.40508 34.09634 98 ft 124 kts 56°
2026-04-29 19:15 35.40960 34.10502 182 ft 118 kts 54°
2026-04-29 19:15 35.41464 34.11334 161 ft 121 kts 56°
2026-04-29 19:15 35.41890 34.12226 233 ft 114 kts 60°
2026-04-29 19:15 35.42231 34.12928 342 ft 95 kts 56°
2026-04-29 19:16 35.42536 34.13575 516 ft 72 kts 50°
2026-04-29 19:16 35.42987 34.13932 143 ft 116 kts 24°
2026-04-29 19:16 35.43567 34.14376 233 ft 75 kts 37°
2026-04-29 19:16 35.43895 34.14715 146 ft 53 kts 28°
2026-04-29 19:17 35.44086 34.14893 141 ft 16 kts 22°
2026-04-29 19:17 35.44112 34.14905 141 ft 0 kts 16°
2026-04-29 19:24 35.44486 34.15024 169 ft 141 kts 13°
2026-04-29 19:25 35.45732 34.15199 1431 ft 194 kts 313°
2026-04-29 19:25 35.47176 34.15070 2280 ft 270 kts 351°
2026-04-29 19:25 35.49030 34.14934 2507 ft 257 kts 356°
2026-04-29 19:25 35.50823 34.14834 2522 ft 270 kts 355°
2026-04-29 19:26 35.52799 34.14994 1739 ft 311 kts 19°
2026-04-29 19:26 35.54398 34.17097 1338 ft 423 kts 75°
2026-04-29 19:26 35.54769 34.20714 1652 ft 408 kts 86°
2026-04-29 19:26 35.54990 34.24044 1307 ft 371 kts 62°
2026-04-29 19:27 35.56702 34.24382 3187 ft 148 kts 250°
2026-04-29 19:27 35.57006 34.23529 344 ft 299 kts 251°
2026-04-29 19:27 35.56941 34.23207 -2 ft 4 kts 262°
2026-04-29 19:27 35.56939 34.23188 -2 ft 2 kts 266°
2026-04-29 19:28 35.75840 34.12243 1046 ft 166 kts 318°
2026-04-29 19:28 35.76727 34.10832 217 ft 281 kts 283°
2026-04-29 19:28 35.77018 34.07949 1385 ft 412 kts 260°
2026-04-29 19:28 35.75768 34.05023 5822 ft 452 kts 201°
2026-04-29 19:29 35.73000 34.05298 10920 ft 452 kts 162°
2026-04-29 19:29 35.69731 34.06151 8953 ft 609 kts 169°
2026-04-29 19:29 35.65301 34.07120 4529 ft 704 kts 176°
2026-04-29 19:29 35.60557 34.08454 2961 ft 719 kts 166°
2026-04-29 19:30 35.55573 34.10025 782 ft 774 kts 165°
2026-04-29 19:30 35.54682 34.10322 -4 ft 4 kts 166°
2026-04-29 19:30 35.84979 33.63763 1111 ft 190 kts 189°
2026-04-29 19:30 35.83283 33.63445 1859 ft 284 kts 191°
2026-04-29 19:31 35.81605 33.63160 5493 ft 274 kts 188°
2026-04-29 19:31 35.79816 33.62784 7933 ft 302 kts 191°
2026-04-29 19:31 35.77730 33.62177 8333 ft 379 kts 194°
2026-04-29 19:31 35.75492 33.61533 9984 ft 283 kts 194°
2026-04-29 19:32 35.73653 33.61050 9271 ft 273 kts 192°
2026-04-29 19:32 35.23615 33.70446 156 ft 0 kts 91°
2026-04-29 19:32 35.23612 33.70667 156 ft 104 kts 88°
2026-04-29 19:32 35.23598 33.72355 224 ft 281 kts 91°
2026-04-29 19:33 35.23574 33.75206 1467 ft 405 kts 88°
2026-04-29 19:33 35.24167 33.78990 3338 ft 510 kts 73°
2026-04-29 19:33 35.25548 33.83398 4772 ft 601 kts 60°
2026-04-29 19:33 35.28387 33.87265 6438 ft 623 kts 42°
2026-04-29 19:34 35.31989 33.90390 6557 ft 598 kts 37°
2026-04-29 19:34 35.35061 33.92760 7286 ft 474 kts 20°
2026-04-29 19:34 35.36972 33.92113 6474 ft 180 kts 11°
2026-04-29 19:34 35.37619 33.92471 1579 ft 292 kts 27°
2026-04-29 19:35 35.23615 33.70446 155 ft 0 kts 91°
2026-04-29 19:35 35.23615 33.70509 155 ft 49 kts 92°
2026-04-29 19:35 35.23601 33.71752 288 ft 228 kts 91°
2026-04-29 19:35 35.23563 33.74110 2023 ft 327 kts 92°
2026-04-29 19:36 35.23454 33.76795 5309 ft 350 kts 90°
2026-04-29 19:36 35.24166 33.79229 9004 ft 351 kts 44°
2026-04-29 19:36 35.26493 33.80968 9176 ft 440 kts 29°
2026-04-29 19:36 35.29536 33.82319 10575 ft 518 kts
2026-04-29 19:37 35.33493 33.82008 8716 ft 622 kts 355°
2026-04-29 19:37 35.36427 33.81705 9023 ft 631 kts 354°
2026-04-29 19:37 35.40474 33.78047 5394 ft 559 kts 290°
2026-04-29 19:37 35.40192 33.73806 1477 ft 511 kts 245°
2026-04-29 19:38 35.37750 33.71716 545 ft 416 kts 204°
2026-04-29 19:38 35.36200 33.68857 1663 ft 482 kts 258°
2026-04-29 19:38 35.35986 33.64232 2414 ft 584 kts 272°
2026-04-29 19:38 35.35880 33.59535 2625 ft 517 kts 264°
2026-04-29 19:39 35.35569 33.55890 4153 ft 429 kts 279°
2026-04-29 19:39 35.36018 33.52012 3928 ft 527 kts 286°
2026-04-29 19:39 35.38720 33.51577 5363 ft 563 kts 52°
2026-04-29 19:39 35.41119 33.55676 6189 ft 623 kts 73°
2026-04-29 19:40 35.39812 33.60359 7385 ft 629 kts 122°
2026-04-29 19:40 35.39047 33.65392 3522 ft 618 kts 128°
2026-04-29 19:40 35.35854 33.64953 2108 ft 470 kts 253°
2026-04-29 19:40 35.35354 33.61041 1261 ft 473 kts 259°
2026-04-29 19:41 35.34848 33.57063 1734 ft 465 kts 263°
2026-04-29 19:41 35.34486 33.53053 906 ft 499 kts 265°
2026-04-29 19:41 35.34005 33.49184 2539 ft 401 kts 256°
2026-04-29 19:41 35.33431 33.46174 2982 ft 327 kts 257°
2026-04-29 19:42 35.31613 33.45322 3110 ft 394 kts 133°
2026-04-29 19:42 35.31188 33.47514 2780 ft 455 kts 59°
2026-04-29 19:42 35.33786 33.52451 1591 ft 509 kts 34°
2026-04-29 19:42 35.35171 33.53017 0 ft 8 kts 94°
2026-04-29 19:43 35.35169 33.53051 0 ft 2 kts 98°
2026-04-29 19:43 35.35169 33.53053 0 ft 1 kts 98°